| time (UTC) | temp F | wind direction | speed MPH | gust MPH | rain 1hr in | rain 24hr in | rain mn in | humidity % | barometer mb |
| 20260508025702 | 59 | 176 | 4.0 | 10.0 | 0.00 | 0.00 | 0.00 | 69 | 1010.4 |
| 20260508025203 | 60 | 189 | 4.0 | 9.0 | 0.00 | 0.00 | 0.00 | 68 | 1010.4 |
| 20260508024702 | 60 | 175 | 4.0 | 7.0 | 0.00 | 0.00 | 0.00 | 68 | 1010.4 |
| 20260508024203 | 60 | 192 | 4.0 | 7.0 | 0.00 | 0.00 | 0.00 | 68 | 1010.2 |
| 20260508023702 | 60 | 178 | 4.0 | 7.0 | 0.00 | 0.00 | 0.00 | 67 | 1010.2 |
| 20260508022703 | 60 | 182 | 4.0 | 9.0 | 0.00 | 0.00 | 0.00 | 67 | 1010.0 |
| 20260508021702 | 61 | 185 | 4.0 | 7.0 | 0.00 | 0.00 | 0.00 | 66 | 1009.9 |
| 20260508020217 | 62 | 179 | 3.0 | 6.0 | 0.00 | 0.00 | 0.00 | 65 | 1009.9 |
| 20260508015702 | 62 | 197 | 3.0 | 6.0 | 0.00 | 0.00 | 0.00 | 64 | 1009.8 |
| 20260508014703 | 62 | 192 | 4.0 | 9.0 | 0.00 | 0.00 | 0.00 | 64 | 1009.8 |
| 20260508014202 | 62 | 175 | 3.0 | 9.0 | 0.00 | 0.00 | 0.00 | 64 | 1009.7 |
| 20260508013702 | 63 | 193 | 3.0 | 9.0 | 0.00 | 0.00 | 0.00 | 63 | 1009.6 |
| 20260508013202 | 63 | 188 | 4.0 | 9.0 | 0.00 | 0.00 | 0.00 | 62 | 1009.6 |
| 20260508012702 | 63 | 195 | 4.0 | 7.0 | 0.00 | 0.00 | 0.00 | 61 | 1009.6 |
| 20260508012202 | 64 | 230 | 3.0 | 7.0 | 0.00 | 0.00 | 0.00 | 61 | 1009.6 |
| 20260508011702 | 64 | 189 | 4.0 | 6.0 | 0.00 | 0.00 | 0.00 | 61 | 1009.5 |
| 20260508011202 | 64 | 183 | 4.0 | 9.0 | 0.00 | 0.00 | 0.00 | 60 | 1009.6 |
| 20260508010702 | 65 | 158 | 4.0 | 9.0 | 0.00 | 0.00 | 0.00 | 59 | 1009.6 |
| 20260508010202 | 65 | 175 | 4.0 | 7.0 | 0.00 | 0.00 | 0.00 | 58 | 1009.5 |
| 20260508005702 | 66 | 166 | 4.0 | 7.0 | 0.00 | 0.00 | 0.00 | 59 | 1009.5 |
| 20260508005202 | 66 | 152 | 3.0 | 5.0 | 0.00 | 0.00 | 0.00 | 59 | 1009.5 |
| 20260508004701 | 67 | 186 | 3.0 | 5.0 | 0.00 | 0.00 | 0.00 | 57 | 1009.5 |
| 20260508004202 | 67 | 171 | 2.0 | 5.0 | 0.00 | 0.00 | 0.00 | 56 | 1009.5 |
| 20260508003702 | 68 | 179 | 2.0 | 7.0 | 0.00 | 0.00 | 0.00 | 56 | 1009.5 |
| 20260508003203 | 68 | 142 | 2.0 | 7.0 | 0.00 | 0.00 | 0.00 | 53 | 1009.6 |
| 20260508002702 | 69 | 175 | 3.0 | 5.0 | 0.00 | 0.00 | 0.00 | 52 | 1009.6 |
| 20260508002203 | 69 | 182 | 3.0 | 7.0 | 0.00 | 0.00 | 0.00 | 50 | 1009.5 |
| 20260508001703 | 70 | 182 | 4.0 | 7.0 | 0.00 | 0.00 | 0.00 | 49 | 1009.6 |
| 20260508001201 | 70 | 189 | 5.0 | 10.0 | 0.00 | 0.00 | 0.00 | 48 | 1009.6 |
| 20260508000702 | 71 | 169 | 4.0 | 10.0 | 0.00 | 0.00 | 0.00 | 47 | 1009.7 |
| 20260508000204 | 71 | 185 | 6.0 | 13.0 | 0.00 | 0.00 | 0.00 | 46 | 1009.7 |
| 20260507235702 | 72 | 204 | 6.0 | 13.0 | 0.00 | 0.00 | 0.00 | 45 | 1009.7 |
| 20260507235203 | 72 | 165 | 5.0 | 10.0 | 0.00 | 0.00 | 0.00 | 45 | 1009.5 |
| 20260507234703 | 72 | 192 | 4.0 | 14.0 | 0.00 | 0.00 | 0.00 | 46 | 1009.6 |
| 20260507234203 | 72 | 217 | 4.0 | 14.0 | 0.00 | 0.00 | 0.00 | 45 | 1009.7 |
| 20260507233702 | 72 | 178 | 7.0 | 12.0 | 0.00 | 0.00 | 0.00 | 44 | 1009.8 |
| 20260507233202 | 72 | 221 | 5.0 | 12.0 | 0.00 | 0.00 | 0.00 | 46 | 1009.8 |
| 20260507232702 | 72 | 207 | 6.0 | 12.0 | 0.00 | 0.00 | 0.00 | 45 | 1009.9 |
| 20260507232201 | 72 | 196 | 5.0 | 11.0 | 0.00 | 0.00 | 0.00 | 46 | 1009.9 |
| 20260507231702 | 72 | 228 | 5.0 | 15.0 | 0.00 | 0.00 | 0.00 | 44 | 1010.0 |
| 20260507231202 | 72 | 216 | 8.0 | 15.0 | 0.00 | 0.00 | 0.00 | 45 | 1010.0 |
| 20260507230202 | 72 | 200 | 4.0 | 14.0 | 0.00 | 0.00 | 0.00 | 46 | 1010.0 |
| 20260507225702 | 72 | 272 | 6.0 | 14.0 | 0.00 | 0.00 | 0.00 | 46 | 1010.1 |
| 20260507225203 | 72 | 261 | 5.0 | 15.0 | 0.00 | 0.00 | 0.00 | 47 | 1010.0 |
| 20260507224702 | 72 | 217 | 7.0 | 16.0 | 0.00 | 0.00 | 0.00 | 44 | 1010.2 |
| 20260507224203 | 72 | 206 | 8.0 | 16.0 | 0.00 | 0.00 | 0.00 | 45 | 1010.2 |
| 20260507223702 | 72 | 243 | 4.0 | 17.0 | 0.00 | 0.00 | 0.00 | 46 | 1010.3 |
| 20260507223201 | 72 | 144 | 9.0 | 17.0 | 0.00 | 0.00 | 0.00 | 47 | 1010.2 |
| 20260507222702 | 72 | 207 | 4.0 | 15.0 | 0.00 | 0.00 | 0.00 | 47 | 1010.4 |
| 20260507222203 | 72 | 216 | 8.0 | 16.0 | 0.00 | 0.00 | 0.00 | 46 | 1010.5 |
| 20260507221702 | 72 | 233 | 8.0 | 16.0 | 0.00 | 0.00 | 0.00 | 44 | 1010.4 |
| 20260507221202 | 72 | 221 | 8.0 | 17.0 | 0.00 | 0.00 | 0.00 | 42 | 1010.3 |
| 20260507220703 | 72 | 241 | 6.0 | 17.0 | 0.00 | 0.00 | 0.00 | 45 | 1010.4 |
| 20260507220202 | 73 | 200 | 8.0 | 17.0 | 0.00 | 0.00 | 0.00 | 46 | 1010.4 |
| 20260507215702 | 73 | 238 | 7.0 | 17.0 | 0.00 | 0.00 | 0.00 | 46 | 1010.4 |
| 20260507214701 | 72 | 169 | 8.0 | 16.0 | 0.00 | 0.00 | 0.00 | 45 | 1010.5 |
| 20260507214203 | 72 | 204 | 8.0 | 16.0 | 0.00 | 0.00 | 0.00 | 49 | 1010.6 |
| 20260507213702 | 72 | 178 | 9.0 | 17.0 | 0.00 | 0.00 | 0.00 | 46 | 1010.8 |
| 20260507213202 | 72 | 204 | 8.0 | 17.0 | 0.00 | 0.00 | 0.00 | 45 | 1010.8 |
| 20260507212702 | 72 | 203 | 8.0 | 17.0 | 0.00 | 0.00 | 0.00 | 46 | 1010.9 |
| 20260507212202 | 72 | 161 | 9.0 | 17.0 | 0.00 | 0.00 | 0.00 | 47 | 1010.9 |
| 20260507211702 | 72 | 247 | 8.0 | 16.0 | 0.00 | 0.00 | 0.00 | 47 | 1011.1 |
| 20260507211203 | 72 | 202 | 8.0 | 13.0 | 0.00 | 0.00 | 0.00 | 49 | 1011.1 |
| 20260507210701 | 72 | 204 | 7.0 | 15.0 | 0.00 | 0.00 | 0.00 | 50 | 1011.3 |
| 20260507210202 | 72 | 254 | 9.0 | 15.0 | 0.00 | 0.00 | 0.00 | 48 | 1011.3 |
| 20260507205702 | 72 | 227 | 6.0 | 19.0 | 0.00 | 0.00 | 0.00 | 50 | 1011.4 |
| 20260507205203 | 72 | 203 | 9.0 | 19.0 | 0.00 | 0.00 | 0.00 | 50 | 1011.5 |
| 20260507204202 | 71 | 264 | 8.0 | 17.0 | 0.00 | 0.00 | 0.00 | 49 | 1011.9 |
| 20260507203701 | 71 | 237 | 7.0 | 14.0 | 0.00 | 0.00 | 0.00 | 51 | 1011.8 |
| 20260507203202 | 71 | 227 | 7.0 | 14.0 | 0.00 | 0.00 | 0.00 | 47 | 1012.0 |
| 20260507202703 | 71 | 166 | 6.0 | 17.0 | 0.00 | 0.00 | 0.00 | 51 | 1012.1 |
| 20260507202202 | 71 | 240 | 7.0 | 22.0 | 0.00 | 0.00 | 0.00 | 52 | 1012.3 |
| 20260507201702 | 70 | 193 | 7.0 | 22.0 | 0.00 | 0.00 | 0.00 | 52 | 1012.3 |
| 20260507201202 | 70 | 216 | 10.0 | 19.0 | 0.00 | 0.00 | 0.00 | 53 | 1012.4 |
| 20260507200703 | 70 | 210 | 10.0 | 19.0 | 0.00 | 0.00 | 0.00 | 53 | 1012.6 |
| 20260507200202 | 70 | 197 | 7.0 | 18.0 | 0.00 | 0.00 | 0.00 | 53 | 1012.5 |
| 20260507195202 | 69 | 188 | 10.0 | 21.0 | 0.00 | 0.00 | 0.00 | 52 | 1012.7 |
| 20260507194702 | 69 | 165 | 9.0 | 20.0 | 0.00 | 0.00 | 0.00 | 52 | 1012.7 |
| 20260507194202 | 69 | 214 | 7.0 | 18.0 | 0.00 | 0.00 | 0.00 | 53 | 1012.8 |
| 20260507193703 | 69 | 230 | 8.0 | 18.0 | 0.00 | 0.00 | 0.00 | 52 | 1012.8 |
| 20260507193202 | 69 | 203 | 9.0 | 19.0 | 0.00 | 0.00 | 0.00 | 53 | 1012.8 |
| 20260507190204 | 68 | 192 | 10.0 | 21.0 | 0.00 | 0.00 | 0.00 | 55 | 1013.1 |
| 20260507185702 | 68 | 213 | 9.0 | 21.0 | 0.00 | 0.00 | 0.00 | 55 | 1013.2 |
| 20260507184703 | 67 | 200 | 9.0 | 20.0 | 0.00 | 0.00 | 0.00 | 56 | 1013.3 |
| 20260507184203 | 67 | 235 | 10.0 | 20.0 | 0.00 | 0.00 | 0.00 | 56 | 1013.4 |
| 20260507183202 | 67 | 220 | 11.0 | 20.0 | 0.00 | 0.00 | 0.00 | 56 | 1013.7 |
| 20260507182702 | 67 | 228 | 9.0 | 19.0 | 0.00 | 0.00 | 0.00 | 58 | 1013.6 |
| 20260507182202 | 67 | 220 | 8.0 | 19.0 | 0.00 | 0.00 | 0.00 | 58 | 1013.9 |
| 20260507181702 | 66 | 204 | 9.0 | 19.0 | 0.00 | 0.00 | 0.00 | 58 | 1014.0 |
| 20260507181202 | 66 | 233 | 10.0 | 21.0 | 0.00 | 0.00 | 0.00 | 58 | 1014.0 |
| 20260507180702 | 65 | 224 | 8.0 | 21.0 | 0.00 | 0.00 | 0.00 | 59 | 1014.1 |
| 20260507180202 | 65 | 258 | 9.0 | 24.0 | 0.00 | 0.00 | 0.00 | 61 | 1014.2 |
| 20260507175703 | 65 | 217 | 10.0 | 24.0 | 0.00 | 0.00 | 0.00 | 59 | 1014.2 |
| 20260507175202 | 64 | 199 | 7.0 | 19.0 | 0.00 | 0.00 | 0.00 | 61 | 1014.3 |
| 20260507174702 | 65 | 221 | 10.0 | 19.0 | 0.00 | 0.00 | 0.00 | 58 | 1014.5 |
| 20260507173204 | 64 | 226 | 10.0 | 18.0 | 0.00 | 0.00 | 0.00 | 61 | 1014.7 |
| 20260507172703 | 64 | 213 | 9.0 | 18.0 | 0.00 | 0.00 | 0.00 | 58 | 1014.8 |
| 20260507172201 | 64 | 233 | 9.0 | 18.0 | 0.00 | 0.00 | 0.00 | 60 | 1014.9 |
| 20260507171703 | 64 | 231 | 9.0 | 26.0 | 0.00 | 0.00 | 0.00 | 60 | 1015.1 |
| 20260507170702 | 64 | 234 | 7.0 | 17.0 | 0.00 | 0.00 | 0.00 | 63 | 1015.1 |
| 20260507170202 | 63 | 202 | 6.0 | 16.0 | 0.00 | 0.00 | 0.00 | 61 | 1015.1 |
| 20260507165702 | 63 | 237 | 9.0 | 19.0 | 0.00 | 0.00 | 0.00 | 64 | 1015.2 |
| 20260507165202 | 63 | 186 | 8.0 | 19.0 | 0.00 | 0.00 | 0.00 | 60 | 1015.2 |
| 20260507163703 | 63 | 219 | 8.0 | 21.0 | 0.00 | 0.00 | 0.00 | 64 | 1015.5 |
| 20260507163201 | 63 | 212 | 11.0 | 21.0 | 0.00 | 0.00 | 0.00 | 63 | 1015.6 |
| 20260507162702 | 62 | 228 | 6.0 | 19.0 | 0.00 | 0.00 | 0.00 | 66 | 1015.5 |
| 20260507162203 | 62 | 266 | 8.0 | 19.0 | 0.00 | 0.00 | 0.00 | 65 | 1015.6 |
| 20260507161703 | 61 | 175 | 7.0 | 13.0 | 0.00 | 0.00 | 0.00 | 64 | 1015.8 |
| 20260507160702 | 62 | 224 | 6.0 | 15.0 | 0.00 | 0.00 | 0.00 | 61 | 1015.8 |
| 20260507160202 | 62 | 213 | 6.0 | 21.0 | 0.00 | 0.00 | 0.00 | 63 | 1015.8 |
| 20260507155702 | 62 | 204 | 6.0 | 21.0 | 0.00 | 0.00 | 0.00 | 63 | 1015.7 |
| 20260507155202 | 62 | 240 | 10.0 | 20.0 | 0.00 | 0.00 | 0.00 | 63 | 1015.6 |
| 20260507154702 | 62 | 231 | 11.0 | 20.0 | 0.00 | 0.00 | 0.00 | 64 | 1015.8 |
| 20260507154203 | 62 | 274 | 6.0 | 14.0 | 0.00 | 0.00 | 0.00 | 65 | 1015.7 |
| 20260507153702 | 61 | 257 | 7.0 | 14.0 | 0.00 | 0.00 | 0.00 | 66 | 1015.9 |
| 20260507153202 | 61 | 243 | 7.0 | 20.0 | 0.00 | 0.00 | 0.00 | 69 | 1015.9 |
| 20260507152703 | 61 | 200 | 7.0 | 20.0 | 0.00 | 0.00 | 0.00 | 68 | 1016.0 |
| 20260507152202 | 61 | 238 | 5.0 | 13.0 | 0.00 | 0.00 | 0.00 | 69 | 1016.2 |
| 20260507151703 | 60 | 264 | 4.0 | 18.0 | 0.00 | 0.00 | 0.00 | 69 | 1016.2 |
| 20260507151203 | 60 | 226 | 5.0 | 18.0 | 0.00 | 0.00 | 0.00 | 69 | 1016.3 |
| 20260507150701 | 60 | 245 | 8.0 | 14.0 | 0.00 | 0.00 | 0.00 | 68 | 1016.2 |
| 20260507150202 | 60 | 203 | 7.0 | 15.0 | 0.00 | 0.00 | 0.00 | 69 | 1016.1 |
| 20260507145702 | 60 | 190 | 8.0 | 15.0 | 0.00 | 0.00 | 0.00 | 69 | 1016.2 |
| 20260507145202 | 59 | 212 | 5.0 | 11.0 | 0.00 | 0.00 | 0.00 | 72 | 1016.2 |
| 20260507144702 | 59 | 237 | 5.0 | 12.0 | 0.00 | 0.00 | 0.00 | 70 | 1016.2 |
| 20260507144201 | 58 | 305 | 3.0 | 12.0 | 0.00 | 0.00 | 0.00 | 71 | 1016.3 |
| 20260507143702 | 58 | 230 | 6.0 | 14.0 | 0.00 | 0.00 | 0.00 | 72 | 1016.3 |
| 20260507143203 | 58 | 202 | 7.0 | 14.0 | 0.00 | 0.00 | 0.00 | 72 | 1016.3 |
| 20260507142203 | 57 | 204 | 5.0 | 12.0 | 0.00 | 0.00 | 0.00 | 75 | 1016.2 |
| 20260507141703 | 56 | 227 | 4.0 | 11.0 | 0.00 | 0.00 | 0.00 | 76 | 1016.4 |
| 20260507141202 | 56 | 241 | 4.0 | 11.0 | 0.00 | 0.00 | 0.00 | 77 | 1016.3 |
| 20260507140202 | 55 | 207 | 4.0 | 10.0 | 0.00 | 0.00 | 0.00 | 80 | 1016.5 |
| 20260507135702 | 54 | 188 | 3.0 | 9.0 | 0.00 | 0.00 | 0.00 | 83 | 1016.6 |
| 20260507135202 | 53 | 244 | 3.0 | 9.0 | 0.00 | 0.00 | 0.00 | 82 | 1016.6 |
| 20260507134701 | 52 | 258 | 3.0 | 7.0 | 0.00 | 0.00 | 0.00 | 85 | 1016.6 |
| 20260507134202 | 52 | 195 | 4.0 | 10.0 | 0.00 | 0.00 | 0.00 | 87 | 1016.5 |
| 20260507133702 | 51 | 248 | 4.0 | 10.0 | 0.00 | 0.00 | 0.00 | 89 | 1016.6 |
| 20260507133202 | 50 | 176 | 3.0 | 9.0 | 0.00 | 0.00 | 0.00 | 91 | 1016.5 |
| 20260507132701 | 49 | 206 | 4.0 | 7.0 | 0.00 | 0.00 | 0.00 | 93 | 1016.5 |
| 20260507132202 | 49 | 206 | 4.0 | 7.0 | 0.00 | 0.00 | 0.00 | 95 | 1016.5 |
| 20260507131703 | 48 | 237 | 2.0 | 6.0 | 0.00 | 0.00 | 0.00 | 96 | 1016.6 |
| 20260507131202 | 47 | 172 | 2.0 | 5.0 | 0.00 | 0.00 | 0.00 | 95 | 1016.6 |
| 20260507130702 | 47 | 207 | 3.0 | 5.0 | 0.00 | 0.00 | 0.00 | 96 | 1016.5 |
| 20260507130202 | 46 | 216 | 1.0 | 5.0 | 0.00 | 0.00 | 0.00 | 96 | 1016.6 |
| 20260507125202 | 45 | 224 | 2.0 | 4.0 | 0.00 | 0.00 | 0.00 | 95 | 1016.7 |
| 20260507124702 | 44 | 212 | 1.0 | 3.0 | 0.00 | 0.00 | 0.00 | 95 | 1016.6 |
| 20260507123702 | 43 | 199 | 1.0 | 3.0 | 0.00 | 0.00 | 0.00 | 95 | 1016.7 |
| 20260507122703 | 42 | 199 | 0.0 | 2.0 | 0.00 | 0.00 | 0.00 | 95 | 1016.7 |
| 20260507121702 | 40 | 199 | 0.0 | 1.0 | 0.00 | 0.00 | 0.00 | 95 | 1016.7 |
| 20260507120702 | 39 | 199 | 0.0 | 0.0 | 0.00 | 0.00 | 0.00 | 94 | 1016.6 |
| 20260507120202 | 39 | 199 | 0.0 | 0.0 | 0.00 | 0.00 | 0.00 | 94 | 1016.7 |
| 20260507115702 | 38 | 199 | 0.0 | 0.0 | 0.00 | 0.00 | 0.00 | 94 | 1016.7 |
| 20260507115202 | 38 | 199 | 0.0 | 0.0 | 0.00 | 0.00 | 0.00 | 94 | 1016.6 |
| 20260507114702 | 38 | 199 | 0.0 | 0.0 | 0.00 | 0.00 | 0.00 | 93 | 1016.6 |
| 20260507114202 | 38 | 199 | 0.0 | 0.0 | 0.00 | 0.00 | 0.00 | 93 | 1016.5 |
| 20260507113704 | 38 | 199 | 0.0 | 0.0 | 0.00 | 0.00 | 0.00 | 93 | 1016.5 |
| 20260507113202 | 38 | 199 | 0.0 | 0.0 | 0.00 | 0.00 | 0.00 | 93 | 1016.6 |
| 20260507112702 | 38 | 199 | 0.0 | 2.0 | 0.00 | 0.00 | 0.00 | 93 | 1016.5 |
| 20260507112202 | 38 | 199 | 0.0 | 2.0 | 0.00 | 0.00 | 0.00 | 93 | 1016.5 |
| 20260507111702 | 37 | 199 | 0.0 | 2.0 | 0.00 | 0.00 | 0.00 | 93 | 1016.6 |
| 20260507111202 | 37 | 199 | 1.0 | 2.0 | 0.00 | 0.00 | 0.00 | 93 | 1016.5 |
| 20260507110702 | 38 | 199 | 1.0 | 2.0 | 0.00 | 0.00 | 0.00 | 93 | 1016.5 |
| 20260507110202 | 38 | 199 | 1.0 | 2.0 | 0.00 | 0.00 | 0.00 | 93 | 1016.4 |
| 20260507105702 | 38 | 199 | 0.0 | 1.0 | 0.00 | 0.00 | 0.00 | 93 | 1016.4 |
| 20260507105202 | 38 | 199 | 0.0 | 0.0 | 0.00 | 0.00 | 0.00 | 93 | 1016.4 |
| 20260507104202 | 38 | 199 | 0.0 | 0.0 | 0.00 | 0.00 | 0.00 | 92 | 1016.3 |
| 20260507103703 | 38 | 199 | 0.0 | 1.0 | 0.00 | 0.00 | 0.00 | 92 | 1016.3 |
| 20260507103201 | 38 | 199 | 0.0 | 2.0 | 0.00 | 0.00 | 0.00 | 92 | 1016.4 |
| 20260507102702 | 38 | 199 | 0.0 | 2.0 | 0.00 | 0.00 | 0.00 | 92 | 1016.4 |
| 20260507102202 | 38 | 199 | 0.0 | 2.0 | 0.00 | 0.00 | 0.00 | 92 | 1016.4 |
| 20260507101702 | 38 | 199 | 1.0 | 2.0 | 0.00 | 0.00 | 0.00 | 92 | 1016.5 |
| 20260507100201 | 38 | 199 | 0.0 | 0.0 | 0.00 | 0.00 | 0.00 | 92 | 1016.5 |
| 20260507095202 | 38 | 199 | 0.0 | 0.0 | 0.00 | 0.00 | 0.00 | 93 | 1016.6 |
| 20260507094705 | 39 | 199 | 0.0 | 0.0 | 0.00 | 0.00 | 0.00 | 92 | 1016.6 |
| 20260507094201 | 39 | 199 | 0.0 | 0.0 | 0.00 | 0.00 | 0.00 | 92 | 1016.6 |
| 20260507093702 | 39 | 199 | 0.0 | 1.0 | 0.00 | 0.00 | 0.00 | 92 | 1016.7 |
| 20260507092702 | 39 | 199 | 0.0 | 0.0 | 0.00 | 0.00 | 0.00 | 92 | 1016.7 |
| 20260507092202 | 39 | 199 | 0.0 | 0.0 | 0.00 | 0.00 | 0.00 | 92 | 1016.7 |
| 20260507091702 | 39 | 199 | 0.0 | 0.0 | 0.00 | 0.00 | 0.00 | 93 | 1016.7 |
| 20260507091202 | 39 | 199 | 0.0 | 1.0 | 0.00 | 0.00 | 0.00 | 92 | 1016.8 |
| 20260507090202 | 40 | 199 | 1.0 | 3.0 | 0.00 | 0.00 | 0.00 | 92 | 1016.8 |
| 20260507085702 | 40 | 192 | 0.0 | 0.0 | 0.00 | 0.00 | 0.00 | 92 | 1016.7 |
| 20260507085201 | 40 | 192 | 0.0 | 1.0 | 0.00 | 0.00 | 0.00 | 93 | 1016.8 |
| 20260507084702 | 40 | 192 | 0.0 | 1.0 | 0.00 | 0.00 | 0.00 | 93 | 1016.8 |
| 20260507084202 | 40 | 192 | 0.0 | 3.0 | 0.00 | 0.00 | 0.00 | 93 | 1016.8 |
| 20260507083702 | 40 | 192 | 1.0 | 3.0 | 0.00 | 0.00 | 0.00 | 93 | 1016.7 |
| 20260507083201 | 40 | 192 | 1.0 | 3.0 | 0.00 | 0.00 | 0.00 | 93 | 1016.8 |
| 20260507082702 | 40 | 192 | 1.0 | 3.0 | 0.00 | 0.00 | 0.00 | 92 | 1016.8 |
| 20260507082202 | 40 | 192 | 1.0 | 5.0 | 0.00 | 0.00 | 0.00 | 92 | 1016.8 |
| 20260507081704 | 40 | 199 | 2.0 | 5.0 | 0.00 | 0.00 | 0.00 | 92 | 1016.8 |
| 20260507080702 | 40 | 202 | 2.0 | 4.0 | 0.00 | 0.00 | 0.00 | 92 | 1016.9 |
| 20260507075702 | 40 | 250 | 1.0 | 2.0 | 0.00 | 0.00 | 0.00 | 91 | 1016.9 |
| 20260507075203 | 40 | 333 | 0.0 | 2.0 | 0.00 | 0.00 | 0.00 | 91 | 1016.9 |
| 20260507074702 | 41 | 333 | 0.0 | 0.0 | 0.00 | 0.00 | 0.00 | 91 | 1016.9 |
| 20260507074202 | 41 | 333 | 0.0 | 0.0 | 0.00 | 0.00 | 0.00 | 91 | 1017.0 |
| 20260507073702 | 41 | 333 | 0.0 | 0.0 | 0.00 | 0.00 | 0.00 | 92 | 1017.0 |
| 20260507073202 | 41 | 333 | 0.0 | 0.0 | 0.00 | 0.00 | 0.00 | 92 | 1017.0 |
| 20260507072703 | 41 | 333 | 0.0 | 0.0 | 0.00 | 0.00 | 0.00 | 92 | 1017.0 |
| 20260507072201 | 41 | 333 | 0.0 | 0.0 | 0.00 | 0.00 | 0.00 | 92 | 1017.0 |
| 20260507071702 | 42 | 333 | 0.0 | 1.0 | 0.00 | 0.00 | 0.00 | 92 | 1017.1 |
| 20260507071202 | 42 | 333 | 0.0 | 1.0 | 0.00 | 0.00 | 0.00 | 92 | 1017.1 |
| 20260507070203 | 42 | 333 | 0.0 | 1.0 | 0.00 | 0.00 | 0.00 | 92 | 1017.3 |
| 20260507065702 | 42 | 333 | 0.0 | 0.0 | 0.00 | 0.00 | 0.00 | 92 | 1017.3 |
| 20260507065203 | 42 | 333 | 0.0 | 0.0 | 0.00 | 0.00 | 0.00 | 92 | 1017.3 |
| 20260507064202 | 42 | 333 | 0.0 | 0.0 | 0.00 | 0.00 | 0.00 | 92 | 1017.5 |
| 20260507063201 | 42 | 333 | 0.0 | 0.0 | 0.00 | 0.00 | 0.00 | 92 | 1017.4 |
| 20260507062703 | 42 | 333 | 0.0 | 0.0 | 0.00 | 0.00 | 0.00 | 92 | 1017.4 |
| 20260507061702 | 42 | 333 | 0.0 | 0.0 | 0.00 | 0.01 | 0.00 | 92 | 1017.5 |
| 20260507061202 | 42 | 333 | 0.0 | 0.0 | 0.00 | 0.01 | 0.00 | 92 | 1017.6 |
| 20260507060702 | 42 | 333 | 0.0 | 0.0 | 0.00 | 0.01 | 0.00 | 92 | 1017.5 |
| 20260507055703 | 42 | 333 | 0.0 | 0.0 | 0.00 | 0.02 | 0.00 | 92 | 1017.5 |
| 20260507055203 | 41 | 333 | 0.0 | 0.0 | 0.00 | 0.02 | 0.00 | 92 | 1017.5 |
| 20260507054703 | 41 | 333 | 0.0 | 0.0 | 0.00 | 0.02 | 0.00 | 92 | 1017.5 |
| 20260507053702 | 41 | 333 | 0.0 | 0.0 | 0.00 | 0.02 | 0.00 | 91 | 1017.6 |
| 20260507053202 | 41 | 333 | 0.0 | 0.0 | 0.00 | 0.02 | 0.00 | 91 | 1017.5 |
| 20260507052702 | 41 | 333 | 0.0 | 0.0 | 0.00 | 0.02 | 0.00 | 91 | 1017.5 |
| 20260507052202 | 41 | 333 | 0.0 | 0.0 | 0.00 | 0.02 | 0.00 | 90 | 1017.6 |
| 20260507051702 | 41 | 333 | 0.0 | 0.0 | 0.00 | 0.02 | 0.00 | 90 | 1017.5 |
| 20260507051203 | 41 | 333 | 0.0 | 0.0 | 0.00 | 0.02 | 0.00 | 89 | 1017.5 |
| 20260507050703 | 41 | 333 | 0.0 | 0.0 | 0.00 | 0.02 | 0.00 | 88 | 1017.6 |
| 20260507050201 | 41 | 333 | 0.0 | 0.0 | 0.00 | 0.02 | 0.00 | 88 | 1017.5 |
| 20260507045701 | 41 | 333 | 0.0 | 0.0 | 0.00 | 0.02 | 0.02 | 88 | 1017.5 |
| 20260507045202 | 41 | 333 | 0.0 | 0.0 | 0.00 | 0.02 | 0.02 | 87 | 1017.4 |
| 20260507044702 | 41 | 333 | 0.0 | 0.0 | 0.00 | 0.02 | 0.02 | 88 | 1017.4 |
| 20260507044203 | 41 | 333 | 0.0 | 0.0 | 0.00 | 0.02 | 0.02 | 88 | 1017.5 |
| 20260507043701 | 41 | 333 | 0.0 | 0.0 | 0.00 | 0.02 | 0.02 | 87 | 1017.6 |
| 20260507042702 | 42 | 333 | 0.0 | 0.0 | 0.00 | 0.02 | 0.02 | 87 | 1017.7 |
| 20260507041704 | 42 | 333 | 0.0 | 0.0 | 0.00 | 0.02 | 0.02 | 88 | 1017.7 |
| 20260507041202 | 42 | 333 | 0.0 | 0.0 | 0.00 | 0.02 | 0.02 | 88 | 1017.6 |
| 20260507040702 | 42 | 333 | 0.0 | 0.0 | 0.00 | 0.02 | 0.02 | 87 | 1017.4 |
| 20260507040202 | 42 | 333 | 0.0 | 0.0 | 0.00 | 0.02 | 0.02 | 87 | 1017.5 |
| 20260507035702 | 42 | 333 | 0.0 | 0.0 | 0.00 | 0.02 | 0.02 | 86 | 1017.6 |
| 20260507035202 | 42 | 333 | 0.0 | 0.0 | 0.00 | 0.02 | 0.02 | 87 | 1017.8 |
| 20260507034702 | 42 | 333 | 0.0 | 0.0 | 0.00 | 0.02 | 0.02 | 86 | 1018.1 |
| 20260507034202 | 42 | 333 | 0.0 | 0.0 | 0.00 | 0.02 | 0.02 | 85 | 1018.1 |
| 20260507033702 | 42 | 333 | 0.0 | 0.0 | 0.00 | 0.02 | 0.02 | 84 | 1017.9 |
| 20260507032702 | 42 | 333 | 0.0 | 0.0 | 0.00 | 0.02 | 0.02 | 84 | 1018.1 |
| 20260507031703 | 42 | 333 | 0.0 | 0.0 | 0.00 | 0.02 | 0.02 | 83 | 1017.7 |
| 20260507031202 | 43 | 333 | 0.0 | 0.0 | 0.00 | 0.02 | 0.02 | 82 | 1017.7 |
| 20260507030203 | 43 | 333 | 0.0 | 0.0 | 0.00 | 0.02 | 0.02 | 82 | 1017.6 |